Regional Weather Roundup
Issued by NWS Burlington, VT

Home | Current Version | Previous Version | Text Only | Print | Product List | Glossary On
Versions: 1 2 3 4 5 6 7 8 9 10 11 12 13 14 15 16 17 18 19 20 21 22 23 24 25 26 27 28 29 30 31 32 33 34 35 36 37 38 39 40 41 42 43 44 45 46 47 48 49 50
000
ASUS41 KBTV 032330
RWRBTV
VERMONT REGIONAL WEATHER ROUNDUP
NATIONAL WEATHER SERVICE BURLINGTON VT
700 PM EDT SUN MAY 03 2015

NOTE: "FAIR" INDICATES FEW OR NO CLOUDS BELOW 12,000 FEET WITH NO
SIGNIFICANT WEATHER AND/OR OBSTRUCTIONS TO VISIBILITY.

* THESE REPORTS ARE NOT UNDER NWS QUALITY CONTROL AND/OR DO NOT
  REPORT WEATHER SUCH AS PRECIPITATION AND FOG.

VTZ001>019-040000-
_____VERMONT_____


CITY           SKY/WX    TMP DP  RH WIND       PRES   REMARKS
BURLINGTON     MOCLDY    75  38  26 S5        29.99S
MONTPELIER     PTCLDY    70  36  28 CALM      30.06S
MORRISVILLE    PTCLDY    72  35  25 VRB3      30.02R
ST. JOHNSBURY*   N/A     73  34  23 MISG      29.99S
LYNDONVILLE*   MOCLDY    70  32  24 CALM      30.05R
MIDDLEBURY*      N/A     71  36  27 CALM      30.01S
RUTLAND*       PTCLDY    72  34  25 SW7       30.03S
SPRINGFIELD    PTCLDY    70  43  37 CALM      30.03R
HIGHGATE*        N/A     71  39  31 CALM      29.99S
NEWPORT*         N/A     69  37  31 W5        30.02R
BENNINGTON     PTCLDY    73  35  25 CALM      30.04S
MT. MANSFIELD*   N/A     57 N/A N/A CALM        N/A

_____LAKE CHAMPLAIN_____


CITY           SKY/WX    TMP DP  RH WIND       PRES   REMARKS
BURTON ISLAND*   N/A     64  41  42 E2          N/A
COLCHESTER RF*   N/A     64  36  34 S7          N/A
DIAMOND ISL*     N/A     73  39  29 SW5         N/A

$$

NYZ007-026>031-035-052-083-040000-
_____NORTHERN NEW YORK_____


CITY           SKY/WX    TMP DP  RH WIND       PRES   REMARKS
PLATTSBURGH    CLOUDY    68  39  34 SE3       29.99R
SARANAC LAKE   PTCLDY    69  33  26 W7        30.03R
MASSENA        CLEAR     73  39  29 SW10      30.00S
OGDENSBURG*    CLEAR     72  39  30 SW7       30.01S
POTSDAM*       CLEAR     70  45  40 W8        30.02R
WATERTOWN      CLEAR     71  39  31 W5        30.03S
FT DRUM        PTCLDY    71  38  29 W7        30.03S
ALBANY         PTCLDY    75  39  27 S8        30.02R
GLENS FALLS    PTCLDY    73  42  32 S5        30.01S

$$
NHZ002-005-011-040000-
_____NEW HAMPSHIRE_____


CITY           SKY/WX    TMP DP  RH WIND       PRES   REMARKS
LEBANON        MOCLDY    71  41  33 CALM      30.02R
KEENE          MOCLDY    70  39  32 CALM      30.05R
MT WASHINGTON  PTCLDY    43  28  56 W18         N/A
PLYMOUTH         N/A     69  46  42 CALM      30.02R
WHITEFIELD     MOCLDY    68  39  34 NW3       30.02R

$$

_____REGIONAL QUEBEC LOCATIONS_____


CITY           SKY/WX    TMP DP  RH WIND       PRES   REMARKS
MONTREAL       PTCLDY    72  41  33 SW13      29.97R
QUEBEC CITY    PTCLDY    72  43  35 W7        29.95R
SHERBROOKE     CLEAR     70  39  32 W7        30.00R

_____REGIONAL ONTARIO LOCATIONS_____


CITY           SKY/WX    TMP DP  RH WIND       PRES   REMARKS
OTTAWA         PTCLDY    72  43  35 S12G18    29.97S

______KEY______
VSB  - VISIBILITY IN MILES
WCI  - WIND CHILL INDEX
HX   - HEAT INDEX
$$
NNNN


USA.gov is the U.S. government's official web portal to all federal, state and local government web resources and services.